Simultaneous Nadir Overpasses (SNOs) Predictions

Prediction of SNOs between AQUA and NOAA-19 Satellite Orbit:

Table of predicted SNOs for the next 14.0 days since TLE Epoch: 8/29/2015
Index Date (AQUA) Time (AQUA) Lat,Lon (AQUA) SZA (AQUA ) Date (NOAA-19) Time (NOAA-19) Lat,Lon (NOAA-19) SZA (NOAA-19 ) Distance(km) Time Diff (sec)
1 08/29/2015 10:05:47 -80.38, 174.74 107.36 08/29/2015 10:04:58 -80.37, 174.81 107.35 1.60 49
2 08/29/2015 10:55:11 80.30, -16.88 72.52 08/29/2015 10:55:52 80.31, -17.00 72.53 2.40 41
3 08/31/2015 15:39:28 80.35, -88.43 73.38 08/31/2015 15:39:12 80.36, -88.56 73.41 2.64 16
4 09/02/2015 20:23:45 80.41,-160.04 74.25 09/02/2015 20:22:32 80.41,-160.15 74.30 2.08 73
5 09/02/2015 21:13:09 -80.32, 8.44 105.89 09/02/2015 21:13:33 -80.33, 8.41 105.89 0.80 24
6 09/05/2015 01:57:26 -80.38, -63.22 105.00 09/05/2015 01:56:53 -80.39, -63.34 104.97 2.33 33
7 09/05/2015 02:46:50 80.31, 105.11 74.90 09/05/2015 02:47:47 80.30, 105.20 74.86 1.78 57
8 09/07/2015 07:31:07 80.38, 33.37 75.81 09/07/2015 07:31:08 80.38, 33.23 75.83 2.70 1
9 09/09/2015 12:15:22 80.39, -37.81 76.64 09/09/2015 12:14:26 80.40, -37.79 76.66 0.66 56
10 09/09/2015 13:04:47 -80.33, 130.40 103.45 09/09/2015 13:05:27 -80.34, 130.34 103.46 1.27 40
11 09/11/2015 17:49:03 -80.38, 58.85 102.56 09/11/2015 17:48:46 -80.39, 58.80 102.54 1.14 17




NCC Satellite Simultaneous Nadir Overpasses (SNOs) Prediction Service
